Simultaneous Nadir Overpasses (SNOs) Predictions

Prediction of SNOs between GOES-15 and METOP-C Satellite Orbit:

Table of predicted SNOs for the next 14.0 days since TLE Epoch: 12/3/2022
Index Date Time (GOES-15) GOES-15 Lat,Lon METOP-C Lat,Lon Distance(km) Time Diff (sec)
1 12/03/2022 18:11:57 -0.15,-127.87 0.48,-130.65 317.32 80
2 12/04/2022 17:53:59 -0.16,-127.84 -0.67,-125.66 248.80 80
3 12/06/2022 06:12:58 0.15,-127.81 -0.37,-130.25 277.45 80
4 12/07/2022 05:49:39 0.15,-127.78 0.72,-125.25 287.75 80
5 12/08/2022 18:08:32 -0.14,-127.70 0.30,-129.82 239.99 80
6 12/09/2022 17:50:33 -0.14,-127.67 -0.79,-124.82 325.51 80
7 12/11/2022 06:09:32 0.13,-127.63 -0.25,-129.40 201.09 80
8 12/12/2022 05:46:12 0.13,-127.59 0.84,-124.40 363.63 80
9 12/13/2022 18:05:05 -0.12,-127.51 0.22,-128.96 165.24 80
10 12/14/2022 17:47:05 -0.12,-127.47 -0.87,-123.96 399.92 80
11 12/16/2022 06:06:04 0.11,-127.44 -0.16,-128.55 126.68 80
